GEFSSE_500_meanwind_060.txt.gz
Wind_Speed
9 9 9 10 10 9 9 9 9 9 9 9 10 10 10 10 10 10 9 9 9 8 8 8 8 7 7 6 6 6 6 6 6 6 6 7 7 6 7 7 8 8 9
12 11 11 11 11 11 11 11 11 10 10 11 11 11 11 11 11 10 10 9 9 9 8 8 8 7 7 7 7 7 7 7 7 7 7 7 7 7 7 7 8 9 9
13 13 12 12 13 13 13 12 12 11 11 11 12 12 12 12 11 11 10 10 9 9 8 8 7 7 7 7 7 7 8 8 8 8 8 8 8 8 8 8 8 9 9
15 14 14 14 14 15 14 14 13 12 12 12 12 12 12 12 11 10 10 9 9 8 7 7 7 7 7 7 7 8 8 9 9 9 9 9 9 9 9 9 9 10 10
17 16 16 16 16 16 15 15 14 13 12 12 12 12 12 11 10 10 9 9 8 7 7 6 6 6 7 7 7 8 9 9 10 10 10 10 10 10 10 10 10 10 10
17 17 16 17 17 17 16 15 14 13 13 12 12 12 11 11 10 9 8 8 7 6 6 6 6 6 6 7 8 8 9 10 10 10 10 10 10 10 10 10 10 10 10
15 16 16 17 17 17 16 15 14 14 13 12 12 11 11 10 9 8 7 6 6 5 5 5 6 6 6 7 8 9 9 9 10 10 10 11 11 11 11 11 10 10 10
13 15 15 17 16 16 16 15 14 14 13 12 11 11 10 9 8 7 6 5 5 5 6 6 6 7 7 8 8 9 9 10 11 11 11 12 12 12 12 11 11 11 10
13 14 14 15 16 15 15 15 14 13 12 12 11 11 10 9 8 7 6 5 6 6 6 7 7 7 8 8 9 10 10 10 10 10 10 12 12 12 12 12 12 12 11
11 13 13 14 15 15 15 14 13 13 12 11 11 10 9 9 8 6 6 6 6 6 6 7 8 8 9 9 9 10 10 10 11 10 9 11 11 12 12 12 12 12 12
10 11 12 14 14 14 14 14 13 12 12 11 11 10 9 9 7 7 6 6 6 7 7 8 9 9 9 9 9 10 10 10 11 11 9 10 11 11 12 12 13 13 13
10 10 11 13 13 13 13 13 13 12 12 11 10 10 9 8 8 7 7 7 7 8 8 9 9 10 10 10 11 11 11 11 11 11 10 10 11 11 12 13 13 14 14
11 10 11 12 13 13 13 13 12 12 11 11 10 10 10 9 8 8 8 8 9 9 10 11 11 12 12 12 13 13 13 13 12 11 10 11 12 12 12 13 14 14 15
11 11 10 11 12 12 12 12 12 12 11 11 10 10 10 10 10 10 10 10 11 11 12 13 14 14 15 15 15 15 15 15 15 13 13 13 13 13 13 14 14 15 15
12 12 11 11 12 12 12 12 11 11 11 11 10 10 10 11 11 12 13 13 13 14 15 16 16 18 19 18 18 17 18 18 17 16 15 15 15 14 14 14 15 16 17
15 13 12 11 12 12 13 13 12 12 12 11 11 11 12 12 13 14 15 16 16 17 18 19 20 21 21 21 21 21 21 22 21 20 17 17 17 17 17 16 17 18 19
17 15 13 13 14 14 14 13 13 13 13 13 12 13 13 14 15 16 17 18 19 20 21 22 24 24 24 24 24 25 24 25 25 24 22 20 20 20 20 20 20 20 21
18 16 14 15 15 15 15 15 14 14 14 14 14 15 16 16 17 18 20 21 22 24 25 26 27 27 27 27 27 27 27 28 27 26 25 25 24 24 24 24 24 24 24
21 17 16 16 16 17 17 17 16 16 16 16 16 17 18 19 20 21 23 24 25 26 27 29 31 31 30 30 30 29 30 30 30 29 29 29 28 27 26 27 27 28 28
23 20 19 18 18 18 19 19 19 19 19 19 19 20 21 22 24 25 26 27 28 30 31 32 33 33 31 31 30 30 31 30 31 31 32 32 31 31 30 30 30 31 32
26 24 22 21 20 20 20 21 21 22 23 23 24 25 25 26 27 28 29 31 32 32 33 34 33 32 31 30 30 30 30 30 29 29 31 32 33 34 34 34 34 35 36
27 25 24 22 21 22 22 23 24 25 26 27 28 29 29 30 30 32 33 33 34 34 34 33 32 32 30 29 29 30 31 30 29 30 32 33 33 34 35 37 38 39 41
28 26 26 24 24 25 25 25 26 27 28 30 32 33 33 33 33 34 34 34 34 33 32 30 30 30 31 31 31 31 31 31 31 31 32 33 34 36 38 39 41 43 45
29 28 28 27 27 27 27 27 28 29 30 31 33 35 36 35 35 34 33 33 33 33 31 29 29 29 31 30 30 30 31 32 33 33 34 35 36 38 40 42 44 46 49
30 30 29 29 29 29 30 29 30 30 31 33 34 33 34 35 35 34 34 33 32 31 30 31 30 31 31 31 31 32 32 34 35 36 37 39 40 42 44 45 48 50 52
32 32 32 31 31 31 33 32 32 33 34 35 35 35 34 35 35 35 34 32 32 31 32 32 33 33 34 33 34 35 35 37 38 40 41 43 45 47 49 51 53 54 56

GEFSSE_500_meanwind_066.txt.gz
Wind_Speed
5 4 5 6 7 8 8 9 9 9 9 8 8 9 9 10 11 11 11 11 11 10 10 10 10 9 9 9 8 8 8 7 7 8 8 8 8 7 7 6 6 5 5
6 5 6 7 8 9 10 10 10 10 10 10 10 10 10 11 11 11 11 11 11 11 10 9 9 8 8 7 7 7 7 7 6 7 8 8 8 7 7 7 6 6 6
8 7 7 8 9 10 11 12 12 12 11 11 11 10 10 11 11 11 11 11 11 10 9 9 8 7 7 6 6 6 6 6 6 7 7 8 8 8 7 7 7 7 7
9 9 9 9 10 11 12 13 13 13 12 12 11 11 11 11 11 11 11 10 10 9 8 8 7 6 5 5 5 6 6 6 7 7 8 8 8 8 8 8 8 8 8
9 9 10 10 11 12 13 14 14 14 13 13 12 11 11 11 11 10 10 10 9 8 7 6 6 5 5 5 5 6 6 6 7 8 8 8 8 8 8 8 8 8 8
10 10 10 11 11 12 14 14 15 14 14 13 12 12 11 11 10 10 9 8 7 7 6 5 5 4 4 5 5 6 6 6 7 8 8 8 8 8 9 9 9 9 9
9 9 9 10 11 13 14 15 15 15 14 13 13 12 11 10 10 9 8 7 6 5 4 4 4 4 4 5 5 6 6 6 7 8 8 8 9 9 9 9 9 9 9
8 8 9 10 11 12 13 14 14 15 14 14 13 12 11 10 9 8 8 6 5 4 4 4 4 4 4 5 5 5 6 6 7 8 8 8 9 9 9 10 10 10 9
8 9 9 10 11 12 12 13 14 14 14 14 13 12 11 10 9 8 7 6 5 4 4 4 4 4 4 5 5 5 5 6 7 8 8 9 9 9 10 10 10 10 10
9 10 10 10 10 11 12 13 13 14 14 14 13 12 11 10 9 8 7 6 5 5 4 4 4 5 5 5 5 6 6 6 7 8 8 9 10 9 10 10 11 11 11
9 10 10 10 10 11 12 13 14 14 14 13 13 12 11 10 9 8 7 6 6 5 5 5 5 6 6 7 7 7 6 7 7 8 9 9 10 10 11 10 11 12 12
10 10 9 9 10 11 12 13 14 13 13 13 13 12 11 10 9 8 7 6 6 6 6 6 7 7 7 8 8 9 8 8 9 9 10 10 10 11 11 11 12 12 13
10 10 10 9 10 11 12 13 13 14 13 13 13 12 11 10 9 8 8 7 7 7 7 7 8 9 9 10 10 11 11 11 11 12 13 12 12 12 12 12 13 14 14
11 10 9 9 10 11 12 12 13 13 13 13 13 12 11 11 10 9 8 8 8 9 9 9 10 11 12 13 13 14 14 14 14 15 15 15 15 14 13 13 14 15 16
12 11 9 10 10 10 11 12 13 13 13 13 13 12 12 11 11 10 10 10 10 10 11 11 13 14 15 16 17 17 17 17 17 17 17 17 17 17 16 16 16 17 18
14 13 12 11 11 11 12 12 13 13 13 13 13 13 13 12 12 12 11 11 12 12 13 14 15 17 18 20 20 21 21 20 20 21 20 20 20 20 20 20 20 20 21
17 15 14 13 13 13 13 13 14 14 14 14 14 14 14 14 14 13 13 13 14 14 16 17 18 20 22 23 24 24 24 24 24 24 23 23 23 22 22 23 23 23 23
20 18 17 16 16 15 15 16 15 15 15 15 15 15 15 15 15 15 15 15 16 17 18 20 21 22 23 24 26 26 26 26 25 24 25 25 25 25 24 25 25 26 27
23 21 20 19 18 18 17 17 17 16 16 17 17 17 16 16 17 17 17 17 18 19 21 21 22 23 24 25 25 26 26 26 25 25 25 25 26 26 27 27 28 28 29
26 24 24 23 21 20 19 19 18 18 18 18 18 18 17 17 18 18 19 20 21 22 22 23 24 25 25 26 26 26 25 26 26 26 26 26 26 27 29 30 30 30 32
27 26 26 26 24 22 21 20 20 19 19 19 19 19 19 20 20 20 21 22 22 23 24 24 25 26 26 26 26 26 26 26 26 27 27 27 28 28 30 32 33 34 35
28 27 26 26 25 24 23 23 23 22 22 21 21 21 22 23 23 23 23 24 24 24 24 26 27 28 28 27 27 27 26 27 28 27 28 29 30 31 33 34 35 36 38
29 28 29 28 26 26 24 24 24 24 24 23 22 22 23 23 23 22 22 24 25 25 26 26 26 26 26 27 28 28 27 27 29 29 30 30 32 34 35 36 37 38 39
30 29 29 28 27 28 26 25 26 24 25 25 24 22 22 22 22 22 22 23 24 25 26 27 26 25 25 25 25 26 28 29 31 31 32 33 34 36 37 38 39 41 42
31 30 28 27 28 27 28 27 27 25 25 26 24 22 22 21 21 20 19 19 21 23 24 25 25 26 27 26 26 28 30 31 33 34 35 36 37 38 39 41 43 45 47
29 29 29 29 29 28 28 28 28 27 27 25 23 23 22 21 20 20 20 20 23 25 26 27 27 28 28 28 30 31 33 34 35 37 38 38 40 41 43 44 46 48 50

GEFSSE_500_meanwind_072.txt.gz
Wind_Speed
5 4 5 6 6 6 5 4 4 3 3 4 4 4 4 5 6 7 7 8 9 9 10 10 10 9 8 8 7 7 7 7 7 8 8 7 7 7 7 7 7 7 7
5 5 6 7 7 7 6 5 5 5 5 5 5 5 6 6 6 6 7 7 8 8 9 9 9 8 8 7 7 6 6 7 7 7 8 7 7 8 7 7 8 8 8
6 6 7 8 9 9 8 8 7 7 7 7 7 7 7 6 6 7 7 7 7 8 8 8 7 7 6 6 6 6 6 6 7 7 7 7 8 8 8 8 8 8 8
7 7 8 9 9 10 10 9 9 8 8 9 8 8 8 8 7 7 7 7 7 7 7 6 6 5 5 5 5 5 5 6 7 7 7 7 7 7 8 8 8 8 8
9 9 9 10 11 11 11 10 10 9 10 10 10 10 9 9 8 7 7 7 7 6 6 5 5 4 4 4 4 5 5 6 7 7 8 7 7 7 8 8 8 8 8
11 11 11 11 11 12 12 12 11 11 11 11 11 11 10 9 9 8 7 7 6 6 5 4 4 3 3 4 4 5 5 6 7 7 8 8 7 8 8 8 8 8 8
13 13 12 12 13 13 13 13 12 12 12 12 12 11 11 10 9 8 8 7 6 5 4 4 3 3 3 3 4 5 6 6 7 7 7 8 8 8 8 9 9 8 8
14 13 13 13 13 13 13 13 13 13 13 13 13 12 11 10 9 9 8 7 6 5 4 4 4 3 3 4 5 5 6 6 7 7 8 8 8 8 9 9 9 9 9
13 13 13 14 13 13 13 13 14 14 14 14 13 13 12 11 10 9 8 7 7 6 5 5 4 4 4 4 5 5 6 7 7 8 8 9 9 8 9 9 9 10 10
13 14 14 13 13 12 12 13 13 13 14 14 14 13 12 11 11 10 9 8 8 7 6 6 5 5 5 5 5 6 7 7 8 8 8 9 10 9 9 9 10 10 11
14 15 13 12 12 12 12 12 12 13 13 14 14 14 13 13 12 11 10 9 9 8 8 7 7 6 6 6 6 6 7 8 8 9 10 10 10 11 11 11 11 11 12
14 14 13 12 11 11 12 12 12 13 14 14 14 14 14 14 13 12 12 11 10 10 9 9 8 7 7 7 8 8 8 9 10 11 12 12 12 12 13 13 13 14 13
14 15 14 12 12 11 12 12 13 13 14 15 15 15 15 15 14 13 13 13 12 11 11 10 9 9 8 9 9 10 11 12 12 13 14 14 14 14 15 15 16 16 15
14 15 14 13 12 12 12 12 13 13 14 15 15 15 15 15 15 14 14 14 13 13 13 12 11 11 10 11 11 12 13 14 15 15 16 16 16 17 17 18 18 18 18
15 16 15 14 13 13 12 12 13 14 15 15 15 15 16 16 16 16 16 15 15 15 14 14 13 12 12 13 14 14 15 16 17 18 19 19 19 20 20 20 20 20 21
16 17 16 15 13 13 12 13 14 14 15 15 16 16 16 17 17 17 17 17 17 16 16 15 15 14 14 15 16 17 18 19 19 20 21 21 21 22 22 22 23 23 23
17 17 17 16 14 14 14 14 14 14 15 16 17 17 17 18 18 19 19 19 18 18 18 17 17 17 17 18 19 19 20 20 21 22 22 22 23 23 23 23 24 24 24
18 18 19 18 17 16 16 15 15 15 16 17 18 18 19 20 20 20 21 21 21 20 20 19 19 19 20 20 21 21 21 22 23 23 24 24 24 24 24 24 24 25 26
21 21 21 21 20 19 19 19 19 18 18 19 20 20 21 22 22 22 22 22 22 21 21 21 21 21 22 22 22 22 23 23 24 25 25 24 25 25 25 25 25 26 27
23 23 23 24 23 22 21 21 22 21 21 21 22 22 23 23 23 24 24 23 23 22 22 23 23 23 24 25 25 25 25 26 26 26 25 26 27 26 27 27 28 29 30
26 25 25 25 24 25 24 25 25 24 24 24 25 25 25 25 25 25 25 25 25 25 24 25 25 25 26 26 26 26 26 27 27 28 28 28 28 28 29 30 30 31 31
29 29 28 26 25 26 26 26 28 27 27 26 25 26 26 27 27 27 27 27 27 26 26 26 27 27 27 27 27 27 27 27 29 30 30 30 30 31 31 32 32 33 34
31 30 30 28 26 26 27 29 30 28 27 27 26 27 27 29 30 29 29 29 28 28 27 26 27 27 27 27 28 28 28 29 29 30 31 32 32 32 33 34 34 36 37
33 31 31 30 29 29 28 28 29 29 27 26 27 28 29 30 31 31 29 29 28 27 26 24 24 25 26 26 27 28 29 30 30 31 31 33 34 35 36 37 38 39 40
34 32 31 30 31 31 29 27 26 26 26 26 27 27 27 29 29 30 29 27 25 24 24 24 24 24 26 27 28 29 31 32 33 34 35 35 37 38 38 40 41 42 44
34 33 32 31 31 31 29 27 25 25 23 24 25 25 25 26 27 26 26 26 24 23 24 24 25 26 27 28 30 31 33 34 35 37 38 39 40 41 42 43 45 46 47

GEFSSE_500_meanwind_078.txt.gz
Wind_Speed
14 14 13 13 13 12 10 10 9 9 8 8 7 5 4 3 2 1 1 1 0 1 2 3 3 3 3 3 4 4 4 4 4 4 4 4 4 4 4 4 4 4 5
14 15 15 14 13 12 11 11 11 10 9 8 7 6 5 4 3 2 2 2 1 2 2 2 2 3 3 3 3 3 3 3 4 4 4 4 5 5 4 4 5 5 5
15 16 17 16 15 14 13 12 12 11 11 10 8 7 6 5 4 4 3 3 3 3 3 3 3 3 3 3 3 3 3 3 3 3 4 4 5 4 4 5 5 5 6
16 17 18 17 16 15 14 13 13 12 12 11 10 8 7 6 6 5 5 4 4 4 4 4 3 3 3 3 2 2 3 3 3 3 4 4 5 5 5 5 6 5 6
18 19 18 18 17 16 15 15 14 14 13 12 11 10 9 8 7 7 6 6 6 5 5 4 4 3 3 3 2 2 3 3 4 4 4 4 5 5 5 5 6 6 6
19 20 19 18 18 17 16 16 16 15 15 14 13 12 10 9 9 8 8 7 7 6 6 5 5 4 3 3 3 3 3 3 4 4 4 5 5 6 6 6 6 6 7
19 19 19 19 19 18 17 17 17 16 16 15 14 13 12 11 10 10 9 8 8 7 7 6 6 5 4 4 4 3 3 4 4 4 4 5 5 6 6 6 6 7 7
18 19 19 20 20 19 18 18 18 18 17 16 15 14 13 12 12 11 10 10 9 8 8 7 7 6 6 5 4 4 4 4 4 5 5 5 5 6 6 7 7 7 7
19 19 20 20 20 20 20 19 19 19 18 17 16 15 15 14 13 12 11 11 10 9 9 9 8 7 7 6 6 5 5 5 5 5 5 6 6 7 7 7 8 7 8
18 19 20 21 21 21 21 20 20 20 19 18 17 17 16 15 14 14 13 12 11 11 10 10 9 8 8 7 7 7 6 6 6 7 7 7 7 8 8 8 8 8 8
18 19 19 22 23 22 23 22 21 20 19 18 18 17 17 16 15 14 14 13 13 12 12 11 10 10 10 9 8 8 8 8 8 8 9 9 9 9 10 10 10 10 10
19 20 20 22 24 24 23 23 22 20 20 19 19 18 17 17 16 16 15 15 14 14 13 13 12 12 11 11 10 10 10 10 10 11 11 11 11 12 12 13 13 13 13
20 20 20 22 24 24 24 23 23 22 21 20 19 19 18 18 17 17 16 16 15 15 15 14 14 14 13 13 12 12 12 12 12 13 14 14 14 14 14 15 15 16 16
20 19 20 20 23 24 23 22 23 22 22 21 20 20 19 19 18 18 17 17 17 17 16 16 16 16 15 15 15 15 14 14 15 16 16 16 16 17 17 17 18 18 18
20 19 19 20 22 23 23 23 23 23 23 22 21 21 21 20 20 19 19 19 18 18 18 18 18 17 18 17 17 17 17 17 18 18 18 18 19 19 20 20 20 20 20
24 22 21 21 23 24 24 24 24 24 23 23 22 22 22 21 21 21 20 20 19 19 20 19 19 20 19 19 19 18 19 19 20 20 20 20 21 21 21 21 21 21 22
26 25 24 23 23 24 24 25 25 24 24 24 23 23 23 22 22 22 21 21 21 21 22 21 22 22 22 21 21 21 21 21 21 22 22 22 22 23 23 23 23 23 23
28 28 26 25 24 24 24 24 25 25 25 25 25 24 24 24 23 23 23 23 23 23 24 23 24 23 23 24 24 24 23 23 22 23 23 24 24 24 24 24 25 25 25
30 30 28 27 25 24 24 24 25 25 26 27 26 25 25 26 25 25 25 24 24 25 25 25 25 25 25 25 25 25 25 25 25 25 25 26 26 27 27 27 27 28 28
32 31 29 28 27 25 24 25 24 26 27 27 26 26 27 27 27 27 27 26 26 27 27 26 26 27 27 26 26 26 26 27 27 27 28 29 29 29 29 29 29 29 30
34 33 30 28 26 25 25 24 25 26 26 27 26 29 29 29 29 30 29 29 28 28 28 28 28 28 28 27 28 28 29 29 29 29 30 31 31 31 31 31 32 33 34
36 34 32 30 28 26 25 25 25 26 27 28 28 28 30 30 31 31 31 30 30 29 30 30 30 30 29 29 29 30 30 30 30 30 31 31 32 33 33 33 34 35 36
38 36 34 32 30 29 27 26 26 26 26 28 29 29 30 31 31 32 32 31 30 30 30 30 30 30 30 30 30 30 30 30 30 30 32 33 34 34 35 35 35 36 37
40 39 37 34 32 31 29 28 26 26 26 27 28 28 30 30 29 30 31 32 31 32 31 30 31 31 31 30 29 30 31 32 32 32 33 34 35 35 36 36 37 38 40
41 40 38 36 34 33 31 29 27 26 25 26 27 27 29 30 31 31 32 32 33 34 33 32 32 31 31 32 32 32 32 33 33 34 34 35 36 37 38 39 40 40 42
40 40 39 37 35 34 32 31 30 28 27 27 27 26 27 29 30 30 29 29 29 30 30 31 32 31 32 32 32 32 32 33 34 35 36 37 38 39 40 41 42 44 46

GEFSSE_500_meanwind_084.txt.gz
Wind_Speed
11 12 12 13 13 13 13 13 13 12 11 11 11 10 10 9 8 7 6 6 5 4 4 3 3 2 2 2 3 3 3 3 3 4 4 3 3 3 3 3 3 3 3
13 14 14 14 15 14 14 14 14 13 12 12 12 12 11 10 9 8 7 6 6 5 4 4 3 3 3 3 3 3 3 3 3 4 4 3 3 3 3 3 4 4 4
14 16 16 16 16 16 16 16 15 14 13 13 13 13 12 11 10 9 8 7 7 6 5 4 3 3 3 3 3 3 3 3 3 3 3 3 3 4 4 4 4 4 4
16 17 18 18 17 17 17 17 17 16 15 15 14 14 13 12 11 10 9 8 7 7 6 5 4 3 3 3 3 3 3 3 3 3 3 4 4 4 4 5 4 4 4
18 18 19 20 19 19 19 19 18 18 17 16 16 16 15 14 12 11 10 9 8 7 7 5 5 4 4 4 3 3 3 3 3 3 3 4 4 4 5 5 5 5 4
18 19 19 20 21 21 20 20 20 19 18 18 18 17 16 15 14 12 11 10 9 8 7 6 6 5 5 4 4 4 3 3 3 3 3 4 4 4 5 5 5 5 5
19 19 19 20 22 22 21 20 20 20 20 19 19 18 17 16 15 14 12 11 10 9 9 8 7 6 6 5 5 5 4 3 3 3 3 3 4 4 5 5 5 5 5
19 18 19 20 22 22 23 22 21 21 21 20 20 19 18 17 16 15 14 12 12 11 10 9 8 8 7 7 6 6 5 4 3 3 3 4 4 5 5 5 6 6 6
19 19 20 19 20 22 23 23 22 22 22 21 21 20 19 18 17 16 15 14 13 12 11 10 9 9 8 8 8 7 6 5 4 4 4 5 6 6 6 6 6 7 7
20 19 21 20 20 22 22 22 22 22 22 22 22 21 20 19 19 18 16 15 14 14 13 12 11 10 10 9 9 8 7 7 6 6 6 6 7 7 8 8 8 8 9
21 20 22 22 21 23 24 23 23 22 22 22 22 21 21 20 20 19 18 17 16 15 14 13 13 12 11 10 10 9 9 8 8 7 8 8 8 9 9 9 10 10 11
22 21 21 22 23 23 23 24 24 24 23 22 23 22 21 21 21 20 20 19 17 17 16 15 14 13 13 12 12 11 11 10 10 10 10 10 10 11 11 12 12 12 12
23 23 22 22 23 24 23 24 25 25 24 23 23 23 23 22 22 22 21 20 19 18 17 16 16 15 15 14 14 13 13 13 13 12 12 12 13 13 13 13 13 14 14
26 25 24 23 24 24 23 24 26 27 25 25 24 24 24 23 22 22 23 22 20 19 19 18 18 17 17 16 16 16 15 15 15 14 15 15 15 15 15 15 15 15 16
28 26 24 23 23 23 23 24 25 27 27 27 26 25 25 24 24 23 23 22 20 19 19 19 19 19 19 18 17 17 18 18 18 16 16 17 17 17 17 17 17 18 19
29 24 24 23 22 22 23 24 25 26 27 26 26 26 26 26 25 23 24 23 21 20 20 20 20 20 20 19 19 19 19 20 20 20 19 19 19 19 19 19 20 21 21
32 27 26 26 23 23 23 24 24 25 26 26 26 26 27 26 25 25 25 24 22 22 22 22 22 21 22 21 21 21 21 22 23 23 22 21 22 21 20 21 21 21 22
33 30 29 28 25 24 25 24 24 24 24 25 26 27 27 25 25 26 26 25 24 24 23 23 23 22 23 23 23 23 23 23 24 25 25 25 23 22 23 23 24 25 25
33 30 28 29 27 27 27 25 26 26 25 25 25 26 26 26 25 25 26 27 27 25 24 24 24 24 24 24 24 24 24 24 25 26 26 26 26 25 25 26 27 27 28
35 33 31 31 30 29 28 27 27 27 26 25 25 26 26 26 25 25 26 26 26 25 25 26 26 25 26 26 26 26 25 26 27 28 28 28 28 28 28 29 29 29 30
36 36 35 34 32 31 29 28 28 28 27 27 27 27 25 25 25 25 25 25 26 27 27 28 27 27 28 27 27 27 27 28 29 29 29 29 30 30 30 31 31 32 32
36 37 36 36 34 33 31 30 29 30 27 26 27 26 25 24 24 25 26 27 27 29 29 29 28 28 28 28 28 27 28 28 29 30 30 31 31 31 32 32 33 33 34
37 36 36 37 37 35 33 32 30 28 28 27 25 23 23 24 25 25 26 26 28 29 30 31 30 30 30 29 29 30 30 31 31 31 30 31 33 33 34 35 35 36 37
35 37 38 38 38 37 36 33 28 26 26 26 23 22 23 24 26 26 27 27 28 29 29 30 31 32 31 30 31 31 32 32 31 31 32 34 35 36 36 36 37 37 38
36 37 38 39 38 37 36 35 31 28 26 26 24 23 24 23 24 25 26 27 28 29 29 29 30 31 31 31 32 33 33 33 33 34 34 34 35 36 38 38 38 39 39
34 36 38 39 38 37 36 35 32 30 27 25 22 22 22 23 24 25 26 27 28 29 30 30 30 30 30 31 32 33 33 34 36 35 36 36 36 37 38 39 40 41 41

GEFSSE_500_meanwind_090.txt.gz
Wind_Speed
8 7 5 6 7 8 9 10 11 11 11 10 10 9 9 9 9 10 9 9 8 8 7 7 6 5 4 4 3 2 2 1 1 1 2 1 1 2 2 2 2 2 1
10 8 8 7 8 9 10 11 12 12 12 12 11 10 10 10 10 10 10 10 9 9 8 7 6 5 5 4 3 3 2 1 1 1 1 2 2 2 3 3 3 2 2
11 10 10 9 10 11 11 12 13 14 14 14 13 12 11 11 11 11 11 11 10 10 9 8 7 6 5 4 3 2 1 1 1 1 2 2 2 3 3 3 3 3 2
12 12 12 12 12 12 13 14 14 15 15 15 14 13 13 12 12 12 12 12 11 10 10 9 8 7 5 4 3 2 1 1 1 1 2 2 2 3 3 3 3 3 2
13 13 13 13 13 13 14 15 16 16 16 16 16 15 14 14 13 13 13 13 12 11 10 10 9 8 6 5 4 3 2 1 1 1 2 2 2 2 3 3 3 3 2
14 14 14 14 14 15 15 16 17 17 17 17 17 17 16 16 15 14 14 13 13 12 11 10 10 9 7 6 5 3 2 1 1 1 1 1 2 2 2 2 2 2 2
15 15 15 15 15 15 16 17 18 19 19 19 18 18 17 17 17 16 15 15 14 13 12 11 11 10 8 7 6 4 4 3 2 2 1 1 2 2 2 2 2 2 2
15 15 16 15 15 16 16 17 19 19 20 20 20 19 19 18 18 17 17 16 15 14 13 12 12 11 10 8 7 6 5 4 3 3 3 2 2 3 3 2 2 2 2
15 16 17 16 16 16 16 17 18 19 20 21 21 21 20 20 20 19 18 17 16 15 14 13 13 12 11 9 8 7 6 5 5 4 4 4 4 4 3 3 4 3 3
16 17 17 18 17 17 18 18 18 19 21 22 22 22 22 21 21 20 19 18 17 16 15 14 13 13 12 11 10 9 8 7 6 6 6 6 5 5 5 5 5 5 5
17 17 18 19 19 19 20 20 20 19 20 21 22 23 22 22 21 20 19 19 18 17 16 15 14 14 13 12 11 10 9 8 8 8 8 7 7 7 7 7 7 7 7
19 20 20 20 21 22 21 21 21 21 21 22 23 23 23 22 22 21 20 19 18 18 17 16 15 15 14 14 13 11 10 10 10 10 9 9 9 9 9 9 9 9 9
21 22 23 23 23 23 22 22 22 22 23 23 24 24 24 24 23 22 21 21 20 19 18 17 17 16 16 15 14 12 12 11 12 11 11 11 11 10 10 11 11 11 11
22 23 25 25 25 24 24 23 23 24 24 24 25 25 25 25 24 24 23 22 21 20 20 19 19 18 17 16 15 14 13 13 13 14 13 13 13 13 13 13 13 13 14
24 24 26 26 26 26 25 25 24 24 25 25 25 24 25 26 25 24 23 23 22 22 21 20 20 20 18 17 17 16 15 15 15 16 16 15 15 15 15 15 15 15 15
25 24 25 26 26 26 26 25 25 25 26 26 27 26 26 27 26 26 25 24 24 23 23 22 21 20 19 19 18 17 17 16 16 17 17 17 17 17 17 17 18 18 18
29 28 26 27 27 27 26 26 26 26 27 26 26 27 27 27 27 27 27 26 24 24 24 23 21 21 21 21 19 18 18 18 18 18 18 19 19 20 20 20 20 20 20
31 30 29 28 28 28 27 27 28 28 29 27 27 27 27 27 27 28 28 27 25 24 24 24 23 22 21 20 20 20 20 20 20 20 20 20 21 21 22 22 21 21 22
32 31 30 29 28 28 29 29 27 29 28 28 27 27 27 26 27 27 27 27 27 26 24 24 24 22 22 21 21 21 21 21 21 21 21 21 22 22 23 23 23 23 24
32 31 31 30 28 28 30 32 31 28 27 26 26 26 27 27 27 27 27 26 26 25 25 23 23 22 23 23 23 23 22 23 22 23 23 22 23 23 24 24 24 25 26
31 31 30 31 31 31 31 32 32 29 28 28 27 27 27 25 26 25 25 26 24 23 23 23 22 23 24 23 23 24 23 23 24 23 24 24 24 24 25 26 27 27 28
31 31 31 32 32 32 32 32 32 30 29 28 29 27 26 25 23 23 24 23 23 22 21 22 22 22 23 24 24 24 24 24 25 25 26 26 25 26 26 27 28 29 30
31 31 32 32 33 31 30 30 31 32 31 30 28 27 25 25 24 22 20 21 21 21 21 22 23 23 24 25 26 26 26 26 26 26 27 28 28 29 29 29 31 32 33
31 31 31 31 32 31 30 30 30 30 31 30 27 27 26 23 21 21 21 22 21 22 22 23 23 24 24 25 26 27 27 27 27 28 29 29 29 30 31 32 32 33 34
31 30 30 31 31 31 30 30 31 30 29 30 29 28 27 25 22 21 22 22 22 22 23 23 23 24 25 26 27 28 29 29 29 29 29 30 31 31 31 32 32 33 34
29 29 30 29 29 30 31 30 30 31 29 28 28 29 28 26 24 22 21 20 21 21 21 22 23 25 26 27 28 28 29 29 30 29 30 31 30 31 31 32 33 33 34

GEFSSE_500_meanwind_096.txt.gz
Wind_Speed
2 3 3 4 5 6 5 5 4 4 3 3 3 2 2 3 4 5 7 8 9 10 10 10 10 10 9 8 7 6 6 5 5 5 5 4 4 4 3 3 2 2 1
3 4 4 6 7 7 7 6 5 5 4 4 4 4 3 4 4 5 6 7 8 9 10 10 10 9 8 7 6 6 5 5 5 5 4 3 4 3 3 3 2 2 2
5 5 6 7 8 8 8 7 7 6 6 6 5 5 5 5 5 5 6 7 8 9 9 9 9 9 8 7 6 5 5 5 5 4 3 3 3 3 3 2 3 2 2
6 6 7 8 9 10 9 9 8 8 8 7 7 7 7 6 6 6 6 7 7 8 8 9 9 9 7 6 6 5 5 4 4 3 3 2 2 2 3 3 3 3 3
8 7 8 9 10 10 10 10 10 9 9 9 9 9 9 8 8 8 8 7 8 8 8 8 9 8 7 6 6 5 4 4 3 3 2 2 2 3 3 3 3 3 3
8 9 9 10 11 11 11 10 11 11 11 11 11 11 10 10 10 9 9 9 8 9 8 8 9 8 8 7 6 5 5 4 3 3 3 2 3 3 3 4 4 4 4
9 10 10 11 12 12 12 12 12 12 12 13 13 12 12 11 11 11 11 10 10 10 9 9 9 8 8 8 7 6 5 5 4 3 3 2 3 3 3 4 4 4 4
10 10 11 12 13 14 14 13 13 14 14 14 14 14 13 13 13 13 13 12 11 11 10 10 9 9 9 8 8 7 6 6 5 4 4 3 3 3 3 3 4 4 4
12 12 12 13 14 15 14 14 14 15 15 15 16 16 15 15 14 14 14 14 13 12 12 11 10 10 10 9 9 8 7 7 6 5 5 5 4 4 4 4 4 4 4
14 14 14 15 16 16 16 16 16 16 16 17 17 17 17 17 16 16 16 15 14 14 13 12 11 11 11 10 9 9 9 8 7 7 7 6 6 6 5 5 5 5 5
16 16 16 17 17 18 18 18 18 18 18 18 18 18 18 18 17 17 17 16 16 15 15 14 13 13 12 11 10 10 10 10 9 9 9 8 8 7 7 7 6 6 6
16 16 16 17 19 18 19 19 20 20 20 20 20 19 20 19 19 18 18 18 17 17 16 16 15 15 13 12 12 12 12 11 11 11 10 10 9 9 9 9 9 8 8
18 18 18 18 20 20 20 20 21 21 22 22 22 22 21 21 20 20 20 19 19 18 18 18 17 16 15 14 14 14 13 13 13 13 12 11 11 11 11 11 11 10 10
21 21 21 21 21 22 23 22 23 23 24 24 24 23 23 23 22 23 22 21 21 20 20 19 19 18 16 16 16 16 15 15 14 14 14 13 13 13 12 12 13 13 12
24 24 23 24 24 24 23 23 24 26 26 26 26 25 24 24 24 23 24 23 22 22 22 21 20 19 18 17 16 17 17 17 16 16 15 15 14 14 14 14 14 15 15
25 25 25 25 24 25 25 25 27 27 27 27 27 26 24 25 25 25 24 25 24 24 24 23 21 20 20 20 19 18 19 18 18 17 17 16 16 16 16 16 16 17 17
26 26 26 26 26 26 26 26 27 27 27 27 27 27 27 26 26 26 27 26 26 25 25 25 24 22 20 21 21 21 20 19 19 18 18 19 18 18 19 18 18 18 19
28 27 28 27 27 28 27 28 28 27 28 29 29 29 29 29 29 28 29 28 27 27 26 26 25 24 23 22 22 22 21 21 21 20 20 20 20 20 20 20 20 20 20
28 28 28 30 29 28 28 29 29 29 30 30 31 31 31 30 30 31 31 30 28 27 27 26 26 26 25 24 24 23 22 22 23 22 21 21 21 21 21 21 21 21 22
28 29 29 29 29 29 30 30 29 30 31 32 32 32 32 32 31 31 31 31 30 29 28 27 26 26 27 25 25 24 24 24 23 23 23 23 23 23 23 23 22 23 23
28 29 29 28 29 29 29 29 30 30 31 32 33 33 32 32 32 30 30 30 30 30 30 28 26 27 27 27 26 26 26 26 25 24 24 25 24 24 25 25 25 25 25
28 28 28 28 28 29 29 30 30 30 31 32 33 32 31 31 31 29 29 30 31 30 29 29 28 28 26 26 26 27 27 27 26 26 26 26 26 27 27 27 27 27 27
27 27 28 27 27 28 29 29 29 30 31 31 32 32 32 31 31 31 27 27 29 28 28 27 27 28 28 27 26 26 25 25 27 26 26 26 27 28 28 28 29 29 29
26 27 27 27 27 27 27 28 28 29 30 30 30 29 30 31 31 30 29 27 27 28 28 27 26 28 28 27 28 27 26 26 27 26 27 27 28 29 29 30 30 30 30
27 27 27 27 27 27 27 27 27 27 28 29 29 29 28 28 28 28 26 26 27 27 29 28 27 28 29 29 29 28 28 27 27 27 27 28 29 30 30 31 31 32 32
27 27 27 27 27 27 27 26 26 25 25 26 28 29 29 27 26 27 27 27 27 27 26 27 26 27 28 28 28 27 27 27 27 28 29 30 30 30 31 30 31 31 31

GEFSSE_500_meanwind_102.txt.gz
Wind_Speed
6 8 7 8 8 8 7 7 7 7 7 7 6 6 5 4 4 3 4 4 5 5 6 6 6 6 6 5 5 4 4 4 5 4 4 4 4 4 4 4 4 4 3
6 8 8 8 8 8 8 8 7 8 8 7 7 6 5 4 3 2 2 3 3 4 4 5 5 5 4 4 4 3 3 4 4 4 3 4 4 4 4 4 4 3 3
7 8 8 9 9 8 8 8 8 9 8 8 7 7 6 5 4 2 1 1 1 2 3 3 3 3 3 3 3 3 2 3 3 3 3 3 3 3 4 4 4 3 2
7 7 8 9 9 9 9 9 9 9 10 9 9 8 7 6 5 3 2 2 1 0 1 1 2 2 2 2 2 2 2 2 2 2 2 2 2 3 3 3 3 3 2
7 7 8 9 10 10 10 10 10 10 11 11 10 10 9 8 7 5 4 3 3 2 2 1 1 1 1 1 1 1 1 1 1 1 1 1 1 2 2 2 2 2 2
8 9 9 10 10 11 11 11 11 11 11 11 11 11 10 10 8 7 6 5 5 5 4 4 3 3 2 2 2 2 2 1 1 1 1 1 1 1 1 1 1 1 1
9 9 10 10 11 11 11 11 12 12 13 13 13 13 12 11 10 10 9 8 7 7 7 6 6 5 4 3 4 4 3 3 3 2 2 1 1 1 1 1 1 1 1
10 10 10 10 11 12 12 12 13 13 13 14 14 14 14 13 13 12 12 10 10 9 9 9 8 7 6 5 5 5 5 5 4 4 4 3 2 2 2 2 1 1 1
11 11 11 11 12 12 13 13 14 14 14 15 15 16 16 16 15 15 14 13 12 11 11 10 10 9 8 7 7 7 7 6 6 6 6 5 4 4 4 4 3 2 2
12 12 12 12 12 13 14 15 15 15 16 16 16 17 17 18 17 17 16 15 14 14 13 12 12 11 10 9 9 8 8 8 8 8 8 7 6 6 5 5 5 4 3
12 12 13 13 14 14 15 16 16 16 16 17 17 18 19 19 19 18 17 16 15 15 14 14 14 13 12 11 11 10 10 10 10 10 10 9 9 8 7 7 6 6 6
13 13 13 14 15 16 16 17 17 17 17 18 18 18 19 20 20 19 18 18 17 16 16 15 15 15 15 13 13 12 12 12 12 12 12 11 11 10 9 9 9 8 8
16 15 15 15 16 17 18 19 19 19 20 20 20 20 20 21 21 20 20 19 19 18 17 17 17 17 17 16 15 15 14 14 14 14 13 13 12 12 11 11 11 10 10
18 17 18 18 18 19 19 20 21 20 21 21 21 21 21 22 23 22 21 21 20 20 19 19 18 18 18 19 18 17 17 16 15 15 14 14 14 14 13 13 12 12 12
20 20 20 20 21 21 21 22 22 22 22 22 23 23 23 24 24 23 24 23 22 22 22 21 20 20 19 20 20 19 18 17 17 17 16 16 16 15 15 15 15 15 14
22 22 22 23 23 22 23 23 24 24 23 23 24 24 25 25 26 25 24 24 24 24 24 24 23 22 22 21 21 21 21 20 19 19 18 18 18 17 17 17 17 17 17
25 25 24 24 25 25 25 25 25 25 26 25 26 26 26 26 27 28 27 26 27 26 25 25 25 24 24 23 23 23 22 22 21 21 20 20 19 19 19 19 18 19 19
26 26 26 26 26 27 27 27 26 27 28 28 28 28 27 27 27 28 29 29 29 29 27 26 27 26 25 25 25 25 25 24 23 22 22 22 21 21 20 20 20 20 20
27 27 27 27 28 28 28 28 28 29 29 31 31 31 30 29 29 28 29 29 30 30 30 28 28 28 27 27 27 26 26 26 26 25 24 24 23 22 22 22 22 22 22
27 28 28 28 29 28 28 28 28 29 29 31 32 32 32 31 30 30 30 29 29 30 30 29 29 29 28 28 28 28 28 28 27 26 26 25 25 25 24 24 24 24 24
27 27 28 28 28 28 28 28 28 28 30 31 32 32 33 32 33 32 32 31 31 30 29 29 28 29 29 28 29 29 29 29 28 27 26 27 27 27 27 27 27 26 27
26 27 28 28 28 27 27 28 29 29 30 31 32 32 32 33 33 33 33 32 32 32 31 30 29 29 29 28 29 30 30 29 29 28 28 29 28 28 28 28 29 29 29
27 27 28 28 29 28 27 28 28 29 30 30 31 32 32 33 33 32 32 32 32 31 31 30 29 30 31 30 30 30 30 29 29 29 29 30 29 29 29 29 30 30 30
27 27 27 27 27 27 27 28 28 29 30 30 31 32 32 33 33 33 33 32 32 31 31 31 30 30 31 31 31 31 30 30 30 30 29 30 30 30 30 30 31 32 32
26 27 27 28 28 28 28 29 29 29 30 31 31 32 33 33 33 33 33 34 33 32 31 32 32 31 30 31 31 31 31 30 30 30 30 30 30 30 30 31 31 31 32
25 26 27 28 28 29 30 30 30 30 30 30 31 31 31 32 32 33 32 32 32 30 29 30 30 30 31 30 30 30 30 31 31 32 32 32 31 31 31 31 32 31 32

GEFSSE_500_meanwind_108.txt.gz
Wind_Speed
8 8 8 8 8 8 9 8 7 7 6 6 6 6 6 6 5 4 3 2 1 1 1 2 2 2 3 3 4 5 5 5 4 5 5 5 6 6 6 6 5 5 5
9 9 9 9 9 9 9 9 9 8 7 7 7 7 7 7 7 6 4 3 2 1 1 0 1 1 2 2 3 3 3 4 4 4 4 4 5 5 5 5 5 5 5
11 10 10 9 10 10 10 10 10 10 9 9 9 8 8 8 8 7 6 5 4 3 2 2 1 0 1 1 1 2 2 2 3 3 3 3 4 4 4 5 5 5 5
11 11 11 11 11 11 11 11 11 11 10 10 9 9 9 9 8 8 7 7 6 5 4 3 3 2 2 1 1 2 1 1 1 1 2 2 3 3 3 4 4 4 4
12 12 12 12 12 12 12 11 12 12 11 11 11 10 10 10 10 10 9 8 7 7 6 5 5 4 3 3 3 3 2 1 1 0 0 1 1 2 2 3 3 3 4
15 13 13 13 13 13 13 12 12 12 12 12 12 12 12 12 12 11 11 10 9 8 7 7 7 6 5 4 4 4 4 3 3 2 1 1 0 1 1 2 2 3 3
16 16 15 14 14 14 14 14 13 13 13 13 13 13 14 14 14 13 12 12 11 10 9 9 9 8 8 7 6 6 6 5 4 3 3 2 1 1 1 1 1 1 2
16 15 15 15 15 15 15 16 16 15 15 15 15 15 15 15 15 15 14 14 13 12 11 11 11 10 9 9 8 8 7 6 6 5 4 4 3 2 2 1 1 1 2
16 16 16 16 16 16 16 16 17 17 17 16 16 16 17 17 16 16 16 15 15 14 14 13 12 11 11 11 10 9 9 8 7 7 6 6 5 4 4 3 3 3 3
16 16 16 16 16 17 17 17 17 17 17 17 18 18 18 18 18 18 18 17 17 16 16 15 14 14 13 13 12 12 11 10 9 8 8 8 7 6 6 5 5 5 5
17 16 16 17 17 17 17 18 18 18 18 18 19 19 19 19 19 19 19 19 19 18 18 17 16 16 15 14 14 14 13 12 11 11 10 10 10 9 8 8 7 7 7
17 16 17 17 17 17 17 18 18 19 19 19 19 20 20 20 20 20 21 21 21 20 20 19 18 17 17 16 16 16 15 14 13 12 12 12 12 11 11 10 10 9 9
19 17 17 16 16 16 17 17 18 19 20 20 20 21 21 21 21 21 21 21 21 21 21 20 20 19 18 18 17 17 17 15 15 14 13 14 14 13 13 13 12 11 11
22 18 18 17 17 17 17 18 18 19 20 21 22 22 22 22 22 22 22 21 22 22 22 21 21 20 20 20 19 19 19 18 18 17 17 16 15 15 15 15 14 14 13
22 18 17 18 17 18 18 18 19 19 20 21 21 22 22 23 23 23 23 22 23 23 23 23 22 23 22 21 21 21 20 20 19 18 18 17 17 17 17 16 16 16 15
22 18 17 17 17 19 19 19 20 21 21 22 23 24 24 25 24 23 23 23 23 23 23 23 23 24 24 23 23 23 22 22 21 19 19 20 20 19 19 18 18 18 17
18 17 17 18 19 20 20 20 21 22 23 23 25 25 26 26 25 24 24 24 25 24 24 23 23 24 24 24 24 25 25 25 24 22 21 21 21 21 21 21 20 20 19
21 18 18 19 20 21 21 21 22 23 24 25 26 27 27 27 25 25 25 26 26 26 25 25 24 25 25 25 25 26 27 27 25 24 23 23 23 23 23 23 23 22 21
21 20 21 22 21 22 23 24 24 25 25 26 28 28 28 27 27 27 27 27 27 27 27 28 27 26 26 26 27 27 28 29 28 26 25 25 24 25 25 24 23 23 22
22 23 23 24 23 24 25 25 25 26 27 27 28 28 29 28 28 29 29 28 28 28 28 30 30 29 29 28 28 29 28 28 28 27 26 26 25 25 25 25 24 24 24
24 24 25 25 26 26 26 26 26 27 28 28 28 29 30 30 31 30 30 30 29 29 29 30 31 31 30 29 30 30 30 29 29 28 27 27 27 27 28 27 26 26 25
24 25 26 26 27 27 27 27 27 27 28 29 29 30 30 31 31 31 31 30 30 31 31 31 31 31 31 31 31 30 30 29 29 29 29 28 28 28 29 28 27 27 27
25 26 27 27 28 28 28 28 28 29 29 30 30 31 31 31 31 31 31 31 31 32 31 31 30 31 31 31 31 30 30 29 29 30 30 29 29 29 29 29 29 29 29
26 27 27 28 28 29 30 31 31 31 31 32 32 31 31 31 31 31 31 31 31 32 32 32 33 32 32 32 32 31 31 30 30 31 31 30 30 30 30 31 31 30 30
26 26 27 27 28 28 29 30 31 31 31 32 32 32 32 32 31 31 32 32 32 33 33 34 34 33 33 33 32 32 32 32 32 31 30 30 30 31 31 31 30 30 31
26 27 27 27 27 28 28 29 30 30 31 32 32 32 32 31 31 31 31 31 32 32 33 33 33 33 34 34 33 33 33 32 32 31 31 31 31 30 30 30 30 32 33

GEFSSE_500_meanwind_114.txt.gz
Wind_Speed
6 5 5 5 5 6 6 7 7 7 6 5 5 5 5 5 6 6 6 6 6 6 5 4 4 3 3 3 2 2 2 2 3 3 3 3 3 4 4 5 5 6 6
7 7 7 7 7 7 7 8 8 8 7 7 7 6 6 6 7 7 7 7 7 6 6 6 5 5 4 3 3 2 2 2 2 2 2 2 3 4 4 5 5 5 5
9 8 8 8 8 8 9 9 10 9 8 8 8 8 8 8 8 8 8 7 7 7 7 7 7 6 5 4 4 3 2 2 1 2 2 2 3 3 3 4 4 4 4
11 10 10 9 9 9 10 10 11 10 10 10 10 9 9 9 9 8 8 8 8 8 8 8 8 7 6 5 5 4 3 2 2 1 2 2 2 2 2 3 3 3 3
13 11 11 10 10 11 11 11 12 12 11 11 11 10 10 10 9 9 9 9 9 9 9 9 9 8 7 7 6 5 4 3 3 2 1 1 1 1 1 1 1 2 2
14 13 12 12 12 12 12 13 13 13 12 12 12 12 11 11 11 11 11 11 11 10 10 10 10 9 8 8 7 6 5 4 4 3 3 2 1 1 1 0 1 1 2
17 15 14 14 14 14 14 14 14 14 14 13 13 13 13 13 13 13 13 12 12 12 12 11 11 10 9 9 8 7 6 6 5 5 4 4 3 3 2 2 1 1 0
18 17 16 15 15 15 15 15 15 15 15 15 15 15 14 14 14 14 14 14 13 13 13 13 12 11 10 10 9 8 8 7 7 6 6 5 5 4 4 3 3 2 2
19 19 18 16 15 15 15 16 16 16 16 16 16 16 16 15 15 15 15 15 15 15 15 14 14 13 13 12 11 10 9 8 8 8 8 7 7 6 6 5 5 4 4
17 18 19 18 16 15 15 15 16 16 17 17 17 17 17 17 17 16 16 16 16 16 16 15 16 15 15 14 13 12 11 10 10 10 9 9 8 8 8 7 6 6 6
17 18 18 18 17 16 16 16 16 17 17 17 18 18 18 17 17 17 17 17 17 17 17 17 17 17 17 17 15 14 13 12 11 11 10 11 10 10 9 9 8 8 7
19 19 17 17 17 16 16 16 17 17 17 18 19 19 18 18 17 18 18 19 19 18 18 19 19 19 19 18 17 16 14 14 13 12 12 12 12 12 12 11 10 10 9
22 21 19 17 17 17 16 17 17 17 18 19 19 19 19 19 18 19 19 19 19 19 19 19 20 20 19 19 18 18 17 15 15 14 14 13 14 13 13 13 13 12 11
22 21 19 17 18 18 17 17 18 18 18 18 19 19 19 19 19 19 20 20 19 19 20 20 19 20 20 20 19 18 18 17 16 16 16 16 16 15 14 14 14 14 14
22 20 17 18 19 18 17 17 17 18 18 18 19 19 20 20 20 20 20 20 20 20 21 21 20 20 19 20 20 19 19 19 19 19 18 17 18 17 16 16 16 16 15
21 18 16 16 17 18 18 18 18 18 18 19 19 19 20 21 21 21 21 21 22 22 21 21 21 21 21 20 20 20 20 20 21 21 20 19 19 18 18 18 18 18 17
21 18 15 15 16 17 17 18 18 18 19 20 20 20 21 22 21 21 21 21 21 22 22 23 22 22 22 21 21 20 21 22 22 21 21 21 20 19 20 20 20 19 19
18 14 15 14 17 17 17 17 18 18 19 20 21 21 22 22 21 22 22 21 22 23 23 23 23 22 22 22 21 21 22 22 23 22 22 21 21 21 21 21 21 21 20
16 14 13 13 14 16 16 17 19 18 19 21 22 23 23 24 23 23 23 22 23 23 24 24 23 24 23 23 22 22 22 23 23 22 21 21 22 22 21 22 22 22 22
17 15 13 13 14 14 15 15 17 19 21 23 23 24 24 24 24 23 22 22 23 24 24 25 24 24 24 24 24 23 23 23 23 23 23 22 23 23 22 22 23 23 23
14 14 12 13 14 15 16 16 18 21 22 23 23 24 24 24 24 24 23 23 24 25 26 26 26 25 25 25 26 25 24 24 24 24 25 25 24 24 23 24 24 24 24
15 14 13 14 15 16 18 19 21 22 23 24 24 24 24 24 24 24 24 24 25 26 27 27 27 27 27 27 27 27 27 26 25 26 25 26 26 25 24 24 25 25 26
16 15 16 16 17 18 19 21 22 22 23 25 24 25 25 25 25 25 25 26 26 27 28 28 28 28 28 28 29 29 29 28 28 27 27 27 26 26 26 25 25 26 26
17 17 18 18 19 19 20 21 23 23 24 25 25 25 25 26 26 26 26 27 27 28 29 29 29 29 29 29 30 30 30 30 29 28 29 29 28 28 28 28 28 27 27
18 18 19 19 20 21 22 23 24 24 25 25 25 25 26 27 27 27 27 28 28 29 29 30 30 30 29 29 30 31 31 31 30 29 29 28 28 28 28 28 29 28 29
18 19 20 21 21 22 23 24 25 25 26 26 26 26 26 27 27 28 28 28 28 29 29 29 29 30 30 30 30 30 30 30 30 29 29 29 28 28 28 29 28 28 29

GEFSSE_500_meanwind_120.txt.gz
Wind_Speed
5 5 6 6 6 5 4 3 3 3 3 2 1 1 2 3 5 6 7 7 8 8 8 8 9 9 8 8 8 8 8 7 7 6 5 5 4 4 3 3 3 3 3
6 6 7 7 7 6 5 5 4 4 4 3 3 3 3 3 4 5 6 7 7 8 8 8 8 8 8 8 8 8 7 7 7 5 5 4 3 3 2 2 2 2 3
8 8 8 8 8 7 6 6 6 5 5 5 4 4 4 4 5 5 5 6 7 7 8 8 8 8 8 7 7 7 7 6 6 5 4 4 3 2 2 2 1 2 2
10 10 10 9 9 8 8 7 7 7 7 6 6 5 5 6 5 5 5 6 6 7 7 8 8 8 8 7 6 6 6 6 6 5 4 3 3 2 2 2 1 2 2
12 11 11 11 10 9 9 9 9 9 8 8 7 7 7 7 7 6 6 7 7 7 8 8 8 8 8 7 7 6 6 6 6 5 4 4 3 3 2 2 2 1 2
14 13 13 12 11 11 11 11 10 10 10 9 9 8 8 8 8 8 8 8 8 8 8 8 8 8 8 8 7 7 7 6 6 6 5 5 4 3 3 2 2 1 1
16 15 14 13 13 13 13 13 12 12 11 11 11 10 10 9 9 9 9 9 9 10 10 10 9 9 9 9 9 9 8 8 7 7 7 6 5 4 3 3 2 2 1
18 17 15 15 15 14 14 15 14 13 13 13 12 12 11 11 11 11 11 11 11 11 11 11 11 10 10 10 10 10 9 9 9 8 8 7 7 5 5 4 4 3 2
18 17 16 16 16 15 14 15 16 15 15 15 14 13 13 13 13 13 13 13 13 14 13 13 13 12 12 12 12 11 11 10 10 10 9 9 8 7 6 6 5 5 4
18 17 17 16 17 17 16 16 17 16 16 16 15 15 15 15 14 15 15 15 15 15 15 15 14 14 14 13 13 13 13 12 11 11 11 10 10 9 8 8 7 6 6
18 17 17 17 17 18 18 17 18 17 17 17 17 17 16 16 16 16 16 16 16 16 16 16 16 16 15 15 14 14 15 14 14 13 12 12 11 10 10 10 9 8 8
17 16 18 18 19 20 20 19 19 18 18 18 18 18 17 17 17 17 18 18 18 17 17 17 17 17 17 17 16 16 16 16 15 14 14 13 12 12 12 12 12 11 10
17 18 18 19 20 22 22 21 19 19 19 18 18 18 18 18 18 18 18 19 19 19 19 19 19 19 19 18 17 18 18 18 17 16 15 15 15 14 14 13 13 13 13
17 17 18 19 20 20 23 23 22 21 20 19 19 19 20 20 20 20 20 19 20 20 20 20 20 20 20 19 18 18 18 18 18 18 17 17 17 16 16 15 15 15 15
16 17 17 16 17 17 19 21 21 21 21 21 20 21 21 21 21 22 22 21 21 21 21 21 21 21 20 20 20 19 18 18 20 20 20 19 19 18 18 17 17 17 16
15 15 15 14 15 16 19 20 22 22 22 21 22 22 23 23 22 22 22 22 22 22 22 22 22 22 22 22 22 21 20 20 20 21 21 21 21 20 20 20 19 19 18
16 16 16 15 15 17 19 21 24 24 23 23 23 23 22 22 23 22 22 23 23 23 23 24 24 24 23 23 23 23 22 21 20 21 22 22 22 22 22 21 21 21 20
16 16 16 14 15 17 19 21 23 24 24 24 24 23 23 24 24 24 23 24 25 24 25 25 26 25 25 24 23 23 23 22 22 21 21 21 22 22 22 22 22 22 21
16 15 14 14 15 16 17 20 20 22 24 24 24 24 24 25 25 25 24 25 25 25 25 26 26 26 26 25 25 24 23 23 23 23 22 23 23 23 23 23 23 22 22
16 14 13 14 15 16 17 18 20 21 22 24 24 24 24 25 24 25 24 24 26 26 26 26 26 27 27 26 27 26 24 24 23 23 23 23 24 25 25 24 24 24 23
15 14 14 14 14 15 17 17 18 20 21 23 24 24 24 24 24 24 24 25 25 25 26 26 27 27 27 28 27 26 25 25 25 25 25 24 24 26 26 26 24 25 25
14 14 16 15 15 15 15 16 18 19 20 20 21 22 22 22 23 23 24 25 25 25 26 26 26 27 27 27 27 27 26 26 26 27 26 26 25 25 26 26 26 26 27
14 14 14 15 16 16 16 17 18 18 18 19 20 20 21 22 23 23 24 25 26 27 27 27 27 27 28 28 27 28 28 27 27 28 28 27 27 27 26 26 28 28 27
14 14 14 14 15 16 17 18 19 18 19 19 19 20 21 22 23 24 25 25 26 27 27 28 27 28 28 29 29 29 29 29 29 28 28 29 28 28 28 28 29 29 29
15 15 15 15 16 17 17 18 18 19 19 20 20 22 22 23 24 25 26 26 27 27 28 28 28 28 29 30 30 30 30 30 30 29 29 30 30 29 29 29 29 29 30
17 17 17 17 17 17 18 19 19 20 21 21 22 23 23 24 24 25 25 26 26 27 28 27 28 28 29 30 30 31 31 31 31 30 30 30 31 31 30 30 30 31 31

GEFSSE_500_meanwind_126.txt.gz
Wind_Speed
2 2 2 2 2 3 3 4 5 5 4 3 2 2 2 3 4 4 5 6 7 7 7 7 8 7 7 7 7 7 7 6 6 5 5 5 4 4 3 3 2 2 2
2 3 3 3 3 4 4 5 6 6 5 4 3 2 1 1 2 3 4 5 5 6 6 6 7 7 6 6 6 6 6 6 6 5 5 4 4 4 3 2 2 1 1
3 4 4 4 4 5 6 6 7 7 6 5 4 3 2 1 1 1 2 2 3 4 4 4 5 5 5 5 5 5 6 5 5 5 4 4 4 3 2 2 1 1 1
5 5 5 5 6 6 7 8 8 8 7 7 6 5 4 3 2 1 0 1 1 2 3 3 4 4 4 4 4 4 5 5 4 4 4 3 3 3 2 1 0 0 1
7 6 6 7 8 9 9 9 9 10 9 8 8 7 6 5 4 3 3 2 2 2 2 3 4 4 4 3 4 4 4 4 4 3 3 3 2 2 2 1 1 1 1
8 7 7 7 9 10 11 10 10 11 11 10 10 9 8 7 6 5 5 4 4 3 3 4 4 4 4 4 4 4 4 4 4 3 3 3 3 3 2 2 2 2 2
9 9 9 9 10 10 11 11 11 12 12 12 12 11 10 9 8 8 7 6 6 6 6 6 6 6 6 6 5 5 6 5 5 4 4 4 4 4 4 3 3 3 3
11 12 12 12 12 13 13 14 13 13 13 14 14 13 12 11 10 10 9 9 8 8 8 8 8 8 8 7 7 7 7 7 7 6 6 6 5 5 5 4 4 4 4
13 13 13 14 14 15 15 15 16 16 15 16 16 15 14 13 13 12 11 11 10 10 10 10 10 10 9 9 9 9 9 9 9 8 8 7 7 7 7 6 6 6 6
14 14 14 14 15 16 16 17 18 18 18 18 18 17 16 16 15 14 13 13 12 12 12 12 12 11 11 10 10 10 10 10 10 10 10 9 9 9 8 8 8 8 7
14 14 14 15 15 16 17 17 19 19 19 19 19 18 18 18 17 17 16 15 15 14 14 14 13 13 13 12 12 12 12 12 12 12 12 11 11 11 10 10 9 9 9
15 14 14 15 15 17 17 17 19 20 21 20 20 20 20 20 19 18 17 17 16 16 16 15 15 14 14 14 14 13 14 14 14 14 14 14 13 13 12 12 11 11 11
15 14 14 15 16 17 17 19 19 20 21 22 21 21 21 21 20 19 19 18 18 18 17 17 16 16 16 16 15 15 15 15 15 15 16 16 15 15 14 14 14 13 13
15 15 15 15 16 18 18 19 19 20 22 23 23 23 22 22 21 21 20 20 20 19 19 18 18 18 17 17 17 16 16 16 17 16 17 18 18 17 16 16 16 15 15
16 16 16 16 18 19 19 19 19 21 21 22 23 23 23 23 23 22 22 22 21 21 20 20 20 20 18 18 18 18 18 18 18 18 18 18 19 19 19 18 18 17 17
16 17 17 17 16 17 18 18 20 21 21 23 25 25 25 24 24 24 23 23 22 21 22 21 21 22 21 21 20 20 20 20 20 20 20 19 19 19 19 20 20 20 19
17 17 17 17 17 17 17 18 19 21 22 24 25 25 25 25 25 25 25 24 23 23 23 23 23 23 23 22 21 21 21 21 21 22 22 22 21 20 20 21 22 22 21
18 18 17 16 17 17 18 19 21 23 24 25 25 26 26 26 26 26 26 25 25 24 24 24 24 24 25 24 23 23 22 23 23 23 23 24 23 22 22 22 23 24 24
18 18 18 18 18 18 19 20 21 23 24 25 25 26 27 28 28 27 27 26 26 25 25 25 25 25 25 25 25 25 25 24 24 24 24 24 23 23 24 24 24 24 25
19 19 19 19 20 20 20 21 22 22 22 22 24 26 27 28 29 28 28 27 26 26 27 26 26 26 26 25 25 25 26 26 25 24 24 25 25 24 25 25 25 25 25
19 19 20 21 20 21 21 21 21 21 22 22 23 25 25 27 28 28 28 27 27 27 27 27 27 26 26 27 26 26 26 27 27 26 26 27 26 26 26 26 26 26 25
19 19 20 20 20 20 20 20 20 20 21 22 23 23 25 26 27 27 27 26 25 26 26 27 27 26 27 27 27 27 27 27 27 27 27 27 27 27 26 26 27 27 27
19 20 21 20 20 20 20 19 19 19 21 22 22 23 24 25 26 26 27 27 26 26 26 26 27 27 27 27 27 27 27 28 28 28 28 28 28 28 28 28 28 29 29
21 21 21 21 21 20 20 20 20 20 21 22 23 23 23 24 26 26 26 26 26 27 27 27 28 27 27 28 28 28 28 29 28 28 28 29 29 30 30 29 30 30 31
22 22 21 21 21 20 20 20 21 21 21 22 22 22 23 23 24 25 25 26 26 27 28 28 28 27 27 28 28 28 28 28 28 29 29 30 31 31 31 31 31 31 31
21 21 22 22 21 21 21 21 21 21 22 23 23 23 23 24 24 25 25 26 27 27 27 28 28 28 27 27 28 28 28 28 29 30 30 31 31 31 31 31 32 32 31

GEFSSE_500_meanwind_132.txt.gz
Wind_Speed
7 6 5 5 4 4 4 4 4 4 4 5 5 5 5 4 3 2 1 1 1 2 2 3 3 4 4 4 5 5 5 5 5 5 4 4 4 4 4 3 3 3 2
8 7 7 7 6 6 6 6 6 6 6 6 7 7 6 5 5 4 3 2 2 1 1 1 2 3 3 3 3 4 4 4 4 4 3 3 4 4 3 3 3 2 2
9 9 9 8 8 8 8 8 8 8 8 8 8 8 7 7 6 6 5 4 3 2 1 0 1 1 2 2 2 2 3 3 3 3 3 3 3 3 3 3 2 2 2
10 10 10 10 10 10 10 10 10 10 10 10 10 10 9 8 8 8 7 6 5 4 3 2 1 2 2 2 2 2 2 3 3 3 3 2 2 2 3 2 2 1 1
11 11 11 11 11 11 11 12 12 12 12 12 11 11 11 10 10 10 9 8 6 5 4 3 3 3 3 3 3 3 3 3 3 3 3 2 2 2 3 3 2 2 2
11 12 11 12 13 13 13 13 14 13 14 14 13 13 13 13 12 11 10 9 8 7 6 6 5 4 4 5 5 5 5 4 4 4 3 3 3 3 3 3 3 3 3
11 12 12 13 13 14 15 15 15 15 16 16 15 15 15 14 13 13 12 11 10 10 9 8 7 6 6 6 7 7 7 6 6 5 4 5 5 5 4 4 4 4 4
12 12 13 14 14 15 15 16 17 17 18 18 17 17 16 16 15 14 14 13 12 12 11 10 9 8 8 8 8 8 8 8 7 6 6 6 6 6 6 6 6 6 6
13 13 13 13 14 16 16 17 18 19 19 19 19 19 18 17 17 16 15 15 14 14 13 12 11 10 10 10 10 10 10 10 9 9 8 8 8 7 7 7 7 7 7
15 14 14 14 15 16 17 19 20 21 21 21 21 21 20 19 19 18 17 17 16 16 15 14 14 13 12 12 11 11 11 11 11 11 10 10 9 9 9 9 9 9 9
15 14 14 15 16 17 17 19 20 21 22 22 22 22 22 21 20 20 20 19 18 18 17 16 15 15 14 13 13 13 13 13 12 12 11 11 11 11 11 11 11 11 11
16 15 15 16 17 17 18 19 20 21 22 22 22 23 24 23 22 21 21 20 20 19 19 18 17 17 16 16 15 14 14 14 13 12 13 13 13 13 13 13 12 12 12
16 17 17 17 19 19 19 20 20 21 22 22 23 24 24 24 23 22 22 22 21 21 20 19 19 19 18 18 17 16 16 15 15 14 14 14 14 14 15 14 14 14 14
17 18 19 19 20 19 19 21 21 22 23 24 24 25 25 25 24 24 23 23 23 21 21 21 21 20 20 19 19 18 18 17 17 16 16 16 16 15 15 16 16 16 16
18 19 19 20 21 20 21 22 23 24 25 25 24 25 24 25 25 25 26 24 24 23 22 22 22 22 21 21 20 19 18 18 18 18 17 17 17 16 17 17 17 18 17
18 18 19 20 22 22 23 24 24 24 24 24 25 24 23 24 25 25 24 24 24 24 24 23 23 22 23 22 21 21 20 19 19 19 19 19 19 19 18 18 18 20 20
18 18 20 21 22 23 23 23 24 24 23 24 24 24 23 23 25 25 25 26 25 24 24 25 24 24 24 23 22 22 21 21 20 20 20 20 20 20 20 20 19 20 21
19 20 21 22 23 23 23 23 23 23 23 23 23 24 25 25 24 25 25 26 26 26 26 26 25 25 24 24 23 23 22 22 21 21 21 21 21 21 21 21 21 21 22
20 21 22 22 22 22 22 23 22 22 22 22 23 25 27 25 25 25 25 26 25 26 26 25 25 25 24 24 23 23 23 23 23 22 22 22 22 22 22 22 21 22 22
21 22 22 23 23 23 23 24 24 24 23 23 24 25 25 25 25 26 26 26 26 25 24 24 25 24 24 24 24 23 23 24 23 23 23 23 23 23 23 22 22 22 23
22 22 24 24 23 23 24 24 24 24 24 24 24 24 24 24 25 25 25 25 24 24 24 25 24 24 24 24 24 23 23 24 23 24 24 25 25 25 24 24 23 23 24
22 23 24 24 24 25 24 25 25 25 25 25 25 24 23 23 23 23 24 24 24 25 25 25 25 24 24 24 24 23 23 24 24 24 24 25 26 26 25 25 25 25 25
23 23 23 24 25 25 25 25 25 25 25 25 24 23 23 23 23 23 24 25 25 25 24 24 24 23 23 23 23 23 23 23 24 25 25 25 25 26 26 26 26 26 25
21 22 22 24 24 25 25 26 25 25 25 24 24 23 23 23 24 25 24 25 25 25 24 24 25 24 24 23 23 23 23 24 24 24 25 25 25 25 25 25 26 27 27
21 22 23 24 24 24 25 25 25 25 24 23 24 24 23 23 24 24 25 26 26 26 25 25 25 25 24 24 24 24 24 24 25 25 25 25 25 25 25 26 26 26 27
23 24 24 24 24 25 25 25 25 25 25 24 24 24 23 23 24 24 25 26 26 26 26 25 25 25 24 24 24 24 24 24 25 25 26 26 25 25 25 25 25 25 26

GEFSSE_500_meanwind_138.txt.gz
Wind_Speed
4 4 3 3 3 3 3 4 4 5 6 7 7 8 8 8 7 7 7 6 5 5 4 4 3 3 3 2 2 2 2 2 2 2 2 1 1 1 1 2 2 3 3
4 4 4 4 5 4 5 5 6 7 8 8 8 8 8 8 9 9 8 7 6 6 5 5 4 4 3 3 3 2 2 2 2 2 2 1 1 1 1 2 2 2 2
5 5 6 6 6 6 6 7 8 9 9 10 10 10 10 10 10 10 9 8 8 7 7 6 6 5 4 4 4 3 3 3 3 2 2 2 2 2 1 1 1 2 1
7 7 7 7 7 7 8 8 9 10 11 11 11 11 11 11 11 11 11 10 9 9 8 8 7 6 6 5 5 4 4 4 4 4 3 3 3 2 2 1 0 1 1
9 9 9 9 9 9 9 10 11 11 12 13 13 13 13 13 13 12 12 11 11 10 10 9 9 8 7 6 6 6 5 5 5 5 4 4 3 3 3 2 2 1 1
10 10 10 10 10 10 11 12 13 13 14 14 15 15 14 15 15 14 14 13 13 12 11 11 10 9 8 8 7 7 6 6 6 6 5 5 5 4 4 4 3 3 2
10 10 10 10 11 12 13 13 14 14 15 15 16 16 16 17 17 16 15 15 14 13 13 12 12 11 10 9 9 8 8 7 7 7 7 6 6 6 5 5 5 4 3
11 11 11 12 12 13 14 14 14 15 16 16 17 18 18 18 18 18 17 16 16 15 15 14 13 13 12 11 10 9 9 8 9 8 8 8 7 7 6 6 6 5 5
12 13 13 13 14 14 14 15 16 16 16 18 18 19 19 19 19 19 19 18 18 17 16 16 15 14 14 13 12 11 10 10 10 10 9 9 8 8 8 8 7 7 6
13 14 15 15 15 15 16 16 16 17 18 19 19 20 20 20 20 20 20 20 19 19 18 17 17 16 15 14 13 13 12 11 11 11 10 10 10 9 9 8 8 8 8
14 15 16 16 16 16 16 17 17 17 18 19 20 20 20 20 21 21 21 21 21 20 20 20 19 18 17 16 15 14 13 13 13 12 11 11 11 11 11 9 9 9 9
16 16 16 17 17 17 17 18 18 18 18 19 19 20 20 21 22 22 23 23 23 23 22 21 21 20 19 18 17 16 15 14 14 13 12 12 12 11 11 11 11 11 11
17 17 18 17 18 18 18 18 19 19 19 20 21 21 21 22 23 24 23 24 24 24 24 23 22 22 20 20 19 18 16 16 15 15 14 14 13 13 13 12 12 12 12
18 18 18 18 18 18 18 18 19 19 19 20 21 21 22 23 24 24 24 24 24 25 25 24 23 22 22 21 21 20 18 18 17 16 16 16 15 15 14 13 14 14 14
18 19 18 18 19 18 18 18 19 19 20 21 21 22 23 24 25 26 27 26 25 25 25 25 24 23 23 22 22 22 21 19 19 19 19 17 16 15 16 15 15 15 15
19 19 19 19 17 18 18 19 19 20 21 21 22 22 23 23 24 27 27 26 26 25 24 24 25 24 23 23 22 21 21 21 21 20 20 19 19 18 18 18 17 17 17
18 17 18 18 17 18 18 19 20 21 21 21 22 22 23 23 23 24 24 23 23 24 25 24 24 24 23 23 22 22 22 22 22 22 21 21 20 19 19 19 19 19 19
18 17 16 17 18 18 18 19 21 21 22 22 22 22 23 23 22 23 23 23 22 22 22 23 23 23 23 22 22 23 23 23 23 23 22 22 22 21 21 20 21 20 20
18 18 17 18 18 18 18 20 21 22 22 22 22 22 23 22 22 21 21 21 21 22 22 22 23 23 22 22 22 23 23 22 23 24 23 23 23 23 23 22 22 22 21
18 18 17 19 19 19 19 21 22 22 22 22 22 22 22 23 22 21 21 21 21 22 23 23 23 23 23 24 23 23 23 23 22 23 23 23 24 25 24 24 23 23 23
18 18 19 20 20 19 21 22 22 22 21 21 22 22 22 21 21 21 20 20 21 23 23 23 24 23 23 23 23 23 23 23 23 23 23 24 24 24 24 23 24 24 24
19 20 19 20 20 21 21 22 22 22 21 21 21 21 20 20 20 20 20 20 21 22 23 23 24 24 22 23 24 24 23 23 24 24 23 23 23 23 22 22 23 24 24
20 20 20 21 21 21 22 22 22 22 22 21 20 20 20 20 20 20 20 21 21 22 22 22 23 22 22 22 23 23 24 24 24 24 24 23 22 22 22 22 22 23 23
20 21 21 21 21 22 22 23 23 22 22 22 21 21 20 20 20 21 21 22 22 21 21 22 22 22 22 23 24 24 24 24 23 23 23 22 22 21 21 22 22 23 24
21 21 22 21 22 22 23 23 23 23 23 23 23 23 21 21 22 22 22 21 21 21 22 22 22 22 22 22 23 23 23 23 22 22 22 22 22 22 22 22 22 22 23
20 21 21 22 22 23 23 24 24 25 25 25 24 23 23 23 22 22 22 21 22 22 22 21 22 22 22 22 22 22 23 23 22 22 22 22 22 21 21 21 21 22 22

GEFSSE_500_meanwind_144.txt.gz
Wind_Speed
5 5 6 6 5 5 5 5 4 4 4 4 5 6 7 8 8 9 9 9 9 8 8 8 8 8 7 7 7 7 7 7 7 6 6 5 5 5 4 3 2 1 1
7 7 6 6 6 6 5 5 5 5 5 5 6 7 7 8 8 9 9 9 9 9 9 9 9 8 8 8 7 7 7 7 7 6 6 6 5 5 4 3 2 1 0
8 8 8 7 7 7 7 7 6 6 6 6 7 7 8 9 9 9 9 10 10 10 10 10 9 9 9 8 7 7 7 7 7 7 6 6 5 5 4 3 2 1 1
10 9 9 9 9 8 8 8 8 7 7 8 8 9 9 10 10 11 11 11 11 11 11 10 10 10 9 9 8 8 7 7 7 7 6 6 5 5 4 3 3 2 2
11 11 11 10 9 9 9 9 9 9 9 9 10 11 11 12 12 12 12 12 13 12 12 11 11 11 10 10 9 9 8 8 8 8 7 7 6 5 5 4 3 3 3
12 12 11 11 10 9 9 9 10 10 10 11 12 12 13 13 13 13 13 14 14 13 13 13 12 12 12 11 10 10 9 9 9 8 7 7 7 6 6 5 5 4 4
13 13 12 11 11 10 10 10 11 11 12 12 13 13 14 15 15 15 15 15 15 14 14 14 14 13 13 13 12 11 10 10 9 9 8 8 8 7 7 6 5 5 5
14 13 13 12 11 11 11 12 12 13 13 14 14 15 15 15 16 16 16 16 16 16 16 16 15 15 14 14 13 13 12 11 10 10 10 9 9 8 8 7 6 6 6
14 14 14 13 13 12 12 13 13 14 14 15 15 16 16 16 17 17 17 18 17 17 17 17 17 16 16 16 15 14 13 12 12 11 11 10 10 9 9 8 8 7 7
15 16 16 16 14 14 14 14 14 14 15 16 16 16 17 17 18 18 18 18 18 18 18 19 18 18 18 17 17 16 15 13 13 12 12 11 10 10 10 9 9 8 8
16 17 18 18 16 15 15 16 16 15 16 16 16 16 17 18 18 18 18 19 20 20 20 20 20 20 19 19 18 18 17 16 14 14 13 12 11 11 11 11 10 10 9
18 18 19 19 18 17 16 17 17 17 17 17 17 18 18 19 19 19 19 19 20 20 21 21 21 21 21 20 20 19 19 18 17 16 15 14 13 13 12 12 11 11 11
19 19 20 20 19 18 17 17 17 17 17 18 18 19 19 20 20 21 21 21 21 22 22 22 22 22 22 22 21 21 20 19 19 18 17 16 15 14 14 14 14 13 13
21 20 21 21 20 19 19 18 18 18 18 18 18 19 20 20 21 22 22 23 23 23 23 24 24 23 23 22 22 22 21 20 20 19 18 18 17 16 16 15 15 14 14
21 21 21 22 20 20 20 20 19 19 20 20 20 20 20 21 21 22 23 24 25 25 25 25 25 24 24 23 23 22 22 23 21 20 20 20 19 18 17 16 16 16 16
21 21 21 20 20 20 20 21 20 20 19 20 20 21 21 22 23 23 23 23 24 25 25 25 25 25 25 24 23 23 23 23 23 22 21 21 20 20 19 18 18 18 17
21 21 20 20 20 20 20 21 21 20 20 21 21 22 22 23 23 23 24 24 25 24 24 24 24 25 25 24 24 24 23 23 24 24 23 23 22 22 21 21 20 20 20
21 21 21 20 20 20 20 20 20 20 20 21 22 22 23 23 24 24 24 24 25 25 24 24 24 24 25 24 24 24 23 24 25 24 25 24 24 23 22 22 21 22 22
22 22 22 21 20 20 20 21 20 20 20 21 23 23 24 23 24 24 25 25 24 25 25 25 26 25 25 25 25 25 25 24 25 25 25 25 24 23 23 24 23 24 24
21 20 21 21 19 19 19 21 20 20 21 21 23 24 24 24 24 24 25 25 24 24 25 25 26 26 26 26 26 26 25 25 24 25 25 26 26 25 24 25 25 25 25
18 18 18 19 20 19 19 20 21 21 22 23 23 24 25 24 24 24 24 23 23 22 23 24 25 26 26 26 26 26 26 25 25 25 26 26 26 26 25 25 25 25 25
20 19 19 19 19 19 20 21 22 22 22 24 24 24 24 24 23 24 24 23 23 22 23 24 25 26 26 26 25 25 26 26 26 25 25 25 26 25 25 25 25 25 26
20 19 19 20 20 21 21 21 22 22 23 24 24 24 24 23 23 23 23 23 23 23 23 23 24 25 26 26 25 26 26 25 26 26 26 26 26 26 25 26 26 26 25
21 21 20 20 21 21 22 22 23 23 23 24 24 23 24 24 24 24 24 24 24 23 23 24 25 26 26 27 27 27 27 27 26 26 27 27 26 26 27 26 26 26 25
21 21 21 21 21 22 23 23 23 24 24 25 24 24 24 24 24 24 25 25 25 25 25 25 26 26 27 27 27 27 27 27 28 28 27 28 27 27 26 26 25 25 25
23 24 23 23 23 23 24 24 24 25 26 25 25 26 26 26 26 26 25 26 26 25 25 25 25 25 26 26 25 26 27 27 27 26 27 27 27 27 26 25 25 26 25

GEFSSE_500_meanwind_150.txt.gz
Wind_Speed
3 2 2 2 2 3 3 4 4 3 3 2 2 2 3 3 3 4 4 5 5 6 6 6 6 6 6 6 5 5 5 5 5 4 4 4 4 3 2 1 0 1 1
4 4 3 4 4 4 4 5 5 5 4 4 3 3 3 3 4 4 5 5 5 5 6 6 6 6 6 6 5 5 5 5 5 4 4 4 4 3 2 1 1 1 1
6 6 5 5 6 6 6 6 6 6 5 5 5 4 4 4 5 5 5 5 5 5 5 6 6 6 6 6 5 5 5 5 5 4 4 4 4 4 2 1 2 2 2
7 7 7 6 7 7 8 8 8 7 7 6 6 6 6 6 6 6 6 6 6 6 6 6 6 6 6 6 6 5 5 5 5 5 5 5 4 4 3 2 2 2 3
7 7 7 7 8 9 9 9 9 8 8 7 7 7 7 7 7 7 7 7 7 7 7 7 7 7 7 7 7 7 6 6 6 6 6 5 5 4 4 3 3 4 4
8 8 8 8 9 10 10 10 10 9 9 9 8 9 9 9 8 8 8 8 8 8 8 8 8 8 8 8 8 8 8 7 7 7 7 6 6 6 5 5 5 6 6
10 9 9 9 10 10 11 11 11 11 11 10 10 10 10 10 10 9 9 9 9 9 9 9 9 9 9 9 9 9 9 9 8 8 8 8 8 8 7 7 7 7 7
11 11 11 11 11 11 12 12 12 12 12 12 12 12 11 11 11 11 11 11 11 11 11 11 11 11 11 10 10 10 11 10 10 9 9 9 9 9 9 9 9 8 8
12 13 13 13 13 13 14 14 14 13 12 12 12 12 12 12 12 12 12 12 12 12 12 12 12 12 13 12 12 12 12 12 12 11 11 10 10 10 10 10 10 10 9
14 14 14 14 14 14 15 15 15 15 14 13 13 13 13 13 13 13 13 13 13 13 14 14 14 13 14 14 14 14 14 14 14 14 13 13 12 11 11 11 11 11 10
14 14 15 15 15 16 16 16 16 16 15 15 14 14 14 14 14 14 14 14 15 15 15 15 15 15 15 15 16 16 15 15 15 15 15 14 13 13 13 12 12 12 11
16 16 15 15 16 17 17 17 17 17 17 16 15 15 15 16 15 15 15 16 17 17 17 17 17 17 17 16 17 17 17 17 17 17 16 16 15 15 15 14 13 12 12
16 16 17 18 18 19 19 20 19 19 18 18 17 17 17 17 17 17 16 17 18 18 19 19 19 19 18 18 18 18 18 19 18 19 18 18 18 17 17 16 15 14 14
18 17 18 19 21 21 21 21 21 20 20 19 19 18 18 18 18 18 18 18 19 19 20 20 20 21 21 20 20 20 20 20 20 21 20 20 20 19 19 18 17 17 16
19 19 19 20 21 22 22 23 22 22 21 21 21 20 20 20 20 20 20 20 20 21 21 21 21 22 22 21 21 21 22 23 24 23 22 22 21 21 20 19 19 18 17
21 21 21 22 22 23 23 23 23 23 22 22 22 22 21 21 21 21 21 21 21 21 22 21 21 22 22 22 22 22 22 23 24 23 23 23 22 22 21 21 21 20 19
21 22 23 23 24 24 24 24 24 24 23 23 23 23 22 22 21 21 22 22 23 23 23 22 22 23 23 24 23 23 23 23 24 24 24 24 24 23 23 23 23 23 22
22 23 24 24 24 24 24 24 26 26 25 24 24 23 23 22 23 23 23 24 24 24 24 24 24 24 24 25 25 25 24 24 24 24 24 23 24 24 24 24 25 24 24
24 25 25 25 25 25 26 26 27 26 25 25 24 23 23 23 24 24 25 25 24 25 24 25 25 25 25 26 26 27 26 26 25 25 25 25 25 25 25 25 25 25 25
25 25 25 24 25 26 27 26 25 25 25 24 23 24 24 24 25 25 25 25 25 25 26 26 26 26 26 26 27 27 27 26 26 25 26 26 25 25 26 26 26 26 26
25 26 25 25 25 26 26 26 25 24 23 23 24 24 24 25 25 25 25 26 26 26 27 27 26 27 27 27 27 27 27 27 27 27 27 27 26 26 27 27 26 26 26
25 25 26 25 25 25 25 25 24 24 23 23 24 24 24 24 24 25 26 26 25 26 27 27 27 27 27 27 28 28 28 28 27 27 27 27 27 27 27 27 27 26 26
26 26 25 26 25 25 25 26 24 23 24 24 24 24 25 25 25 26 26 27 26 26 27 27 27 28 27 27 28 28 27 28 28 28 28 28 28 28 28 28 28 27 27
26 26 25 24 25 25 26 24 24 25 26 25 25 25 25 26 26 26 27 27 27 27 26 27 28 28 27 27 27 27 28 27 28 28 27 28 28 28 28 28 29 29 28
26 26 26 25 25 25 25 25 25 26 26 26 26 26 26 27 27 27 28 27 27 27 27 28 28 27 26 26 27 27 28 28 27 28 28 28 28 28 28 27 27 28 29
27 26 25 25 25 25 25 27 27 27 27 27 27 27 28 28 28 28 28 27 28 28 28 27 27 27 27 27 27 27 27 27 28 28 28 27 27 27 27 27 27 27 28